Location: *
(13.2257°S, 48.7193°W)
Time: 12:49:57
(UTC+00:00)

CZ-4 R/B - Pass Details

Date: 13 February 2026
Orbit: 676 x 743 km, 98.7° (Epoch: 11 March)

Event Time Altitude Azimuth Distance (km) Brightness Sun altitude
Rises 08:19:07 0° 2° (N) 3,143 7.0 -13.4°
Reaches altitude 10° 08:21:27 10° 357° (N) 2,219 6.2 -12.9°
Maximum altitude 08:26:10 50° 282° (WNW) 919 4.0 -11.8°
Drops below altitude 10° 08:30:50 10° 206° (SSW) 2,199 6.3 -10.7°
Sets 08:33:09 0° 201° (SSW) 3,113 7.1 -10.1°
